Regional Weather Roundup
Issued by NWS

Home | Current Version | Previous Version | Graphics & Text | Print | Product List | Glossary On
Versions: 1 2 3 4 5 6 7 8 9 10 11 12 13 14 15 16 17 18 19 20 21 22 23 24 25 26 27 28
000
ASUS45 KPSR 171410
RWRAZ

ARIZONA HOURLY REGIONAL WEATHER ROUNDUP
NATIONAL WEATHER SERVICE PHOENIX AZ
700 AM MST SUN DEC 17 2017

NOTE: FAIR INDICATES FEW OR NO CLOUDS BELOW 12,000 FEET WITH NO
SIGNIFICANT WEATHER AND/OR OBSTRUCTIONS TO VISIBILITY.

AZZ001>003-036-171500-
NORTHWEST ARIZONA

CITY           SKY/WX    TMP DP  RH WIND       PRES   REMARKS
BULLHEAD CITY  CLEAR     54  23  30 N23G32    29.93R
KINGMAN        CLEAR     33  20  58 E12       29.97R WCI  24
$$

AZZ004>008-015-016-018-171500-
NORTH CENTRAL ARIZONA

CITY           SKY/WX    TMP DP  RH WIND       PRES   REMARKS
GRAND CANYON   PTCLDY    14   1  56 NE3       29.98R
WILLIAMS       CLOUDY    27  10  50 S6        29.93R WCI  20
PRESCOTT       MOCLDY    28  14  55 SW6       29.93R WCI  22
FLAGSTAFF      MOCLDY    29   7  39 E7        29.96R WCI  22
PAYSON         DRIZZLE   37  34  87 CALM      29.95R
PAGE           PTCLDY    27  12  53 S5        30.01R WCI  22
$$

AZZ009>014-017-171500-
NORTHEAST ARIZONA

CITY           SKY/WX    TMP DP  RH WIND       PRES   REMARKS
WINSLOW        CLOUDY    31   9  39 S6        29.99R WCI  25
SAINT JOHNS    CLOUDY    25   3  38 W3        29.97R
WINDOW ROCK    PTCLDY    23   8  52 CALM      29.99R
SHOW LOW       CLOUDY    34  18  51 E5        29.97R WCI  30
$$

AZZ540-542>544-546-548-171500-
GREATER PHOENIX AREA

CITY           SKY/WX    TMP DP  RH WIND       PRES   REMARKS
PHOENIX        CLOUDY    52  49  89 NE15      29.86S
BUCKEYE        CLOUDY    50  43  76 E12       29.90R
GLENDALE       PTCLDY    52  52 100 CALM      29.90
LUKE AFB       CLOUDY    52  43  72 SW3       29.88R
DEER VALLEY    LGT RAIN  49  45  86 NE17G26   29.89R
SCOTTSDALE     LGT RAIN  51  45  79 NE18      29.90S
MESA-FALCON      N/A     48  46  93 NE18G26   29.89
MESA-GATEWAY   MOCLDY    52  45  76 NE14      29.88S
CHANDLER       MOCLDY    52  48  87 N12       29.87R
$$

AZZ539-553-171500-
SOUTHWEST MARICOPA COUNTY AND PINAL COUNTY

CITY           SKY/WX    TMP DP  RH WIND       PRES   REMARKS
CASA GRANDE    NOT AVBL
$$

AZZ503-504-507>509-171500-
SOUTHEAST ARIZONA

CITY           SKY/WX    TMP DP  RH WIND       PRES   REMARKS
TUCSON           N/A     48  40  73 S33G47    29.92R
DAVIS-MONTHAN  LGT RAIN  48  41  76 S26G32    29.90R
RYAN FIELD     MOCLDY    48  39  71 SW22G33   29.92R
NOGALES        HVY RAIN  44  43  96 MISG      29.87R FOG
SIERRA VISTA   LGT RAIN  41  39  93 SE5       29.91R
DOUGLAS        CLOUDY    41  39  93 SE16      29.94R
SAFFORD        RAIN      39  35  86 NE12      29.94S FOG     WCI  32
$$

AZZ532-171500-
SOUTHWEST ARIZONA

CITY           SKY/WX    TMP DP  RH WIND       PRES   REMARKS
YUMA           MOCLDY    55  21  26 E6        29.84R
$$

CAZ041-043-047-048-061-525>527-560>570-171500-
SOUTHERN CALIFORNIA

CITY           SKY/WX    TMP DP  RH WIND       PRES   REMARKS
DOWNTOWN L.A.  CLEAR     49  34  56 CALM      29.85R
L.A. AIRPORT   CLEAR     57  22  25 VRB7      29.86R
SAN DIEGO      PTCLDY    51  45  79 CALM      29.84R
BURBANK        CLEAR     59  21  23 VRB3      29.86R
ONTARIO        PTCLDY    58  18  21 N14G20    29.86R
RIVERSIDE      CLEAR     55  18  23 NE17G26   29.90R
PALM SPRINGS   PTCLDY    60  19  20 N13       29.94R
EL CENTRO NAS  CLOUDY    57  36  45 N15       29.86R
IMPERIAL       MOCLDY    59  27  29 N12       29.83R
BLYTHE         CLOUDY    55  26  32 NW12      29.86R
NEEDLES        CLEAR     55  28  35 N21G30    29.93R
$$

NVZ020-UTZ003-171500-
SOUTHERN NEVADA-UTAH

CITY           SKY/WX    TMP DP  RH WIND       PRES   REMARKS
LAS VEGAS      PTCLDY    48  19  31 N21G36    30.02R
SALT LAKE CITY MOCLDY    29  26  89 N7        30.19R WCI  22
$$

NMZ009-TXZ055-171500-
NEW MEXICO-WEST TEXAS

CITY           SKY/WX    TMP DP  RH WIND       PRES   REMARKS
ALBUQUERQUE    CLOUDY    32  17  54 N9        30.00R WCI  24
EL PASO        CLOUDY    36  30  79 SW3       29.97R
$$


........................KEY........................
SKY/WX - SKY CONDITION/WEATHER
TMP    - TEMPERATURE IN FAHRENHEIT
DP     - DEW POINT IN FAHRENHEIT
RH     - RELATIVE HUMIDITY IN PERCENT
WIND   - DIRECTION AND SPEED IN MILES PER HOUR (MPH)
VRB    - VARIABLE WIND DIRECTION
PRES   - MEAN SEA LEVEL PRESSURE IN INCHES OF MERCURY
         F - FALLING PRESSURE   R - RISING PRESSURE
         S - STEADY PRESSURE
VSB    - VISIBILITY IN MILES
HX     - HEAT INDEX IN FAHRENHEIT
WCI    - WIND CHILL INDEX IN FAHRENHEIT
TC     - TEMPERATURE IN CELSIUS WHICH IS ALSO KNOWN AS
         TEMPERATURE IN CENTIGRADE
AFB    - AIR FORCE BASE
         LUKE AFB IS LUKE AIR FORCE BASE
         DAVIS-MONTHAN IS DAVIS-MONTHAN AIR FORCE BASE
NAS    - NAVAL AIR STATION
         EL CENTRO NAS IS EL CENTRO NAVAL AIR STATION
N/A    - NOT AVAILABLE





USA.gov is the U.S. government's official web portal to all federal, state and local government web resources and services.